Regional Weather Roundup
Issued by NWS

Home | Current Version | Previous Version | Graphics & Text | Print | Product List | Glossary On
Versions: 1 2 3 4 5 6 7 8 9 10 11 12 13 14 15 16 17 18 19 20 21 22 23 24 25 26 27 28 29 30 31 32 33 34 35 36 37 38 39 40 41 42 43 44 45 46 47 48 49
000
ASUS43 KDMX 032107
RWRIA

WEATHER ROUNDUP FOR IOWA
NATIONAL WEATHER SERVICE DES MOINES IA
400 PM CDT FRI JUL 03 2015

NOTE: "FAIR" INDICATES FEW OR NO CLOUDS BELOW 12,000 FEET WITH NO
SIGNIFICANT WEATHER AND/OR OBSTRUCTIONS TO VISIBILITY.

* - THESE STATIONS ARE NOT NWS STATIONS...THUS NOT UNDER NWS
QUALITY CONTROL.  THEY ALSO DO NOT REPORT WEATHER SUCH
AS PRECIPITATION OR FOG.

IAZ001>003-012>014-020>022-031>034-043>046-032200-
   NORTHWEST IOWA

CITY           SKY/WX    TMP DP  RH WIND       PRES   REMARKS
CARROLL *      SUNNY     75  52  43 VRB5      29.99S
CHEROKEE *     SUNNY     75  54  46 CALM      29.99F
DENISON *      SUNNY     75  52  43 CALM      29.97F
LE MARS *      SUNNY     77  59  53 CALM      29.99F
ORANGE CITY *  SUNNY     73  57  56 W6        29.99F
SHELDON *      MOSUNNY   75  59  57 W7        29.98F
SIOUX CITY     SUNNY     78  59  51 NW5       29.98F
SPENCER        MOSUNNY   80  55  42 W9        29.98F HX  80
STORM LAKE *   SUNNY     75  52  43 CALM      30.00F
$$

IAZ055>058-069>071-079>083-090>094-032200-
   SOUTHWEST IOWA

CITY           SKY/WX    TMP DP  RH WIND       PRES   REMARKS
ATLANTIC *     SUNNY     75  54  46 E3        29.98F
AUDUBON *      SUNNY     77  52  41 CALM      30.00S
CLARINDA *     SUNNY     79  55  44 NE7       29.99F
COUNCIL BLFS * SUNNY     75  54  46 VRB3      29.99F
CRESTON *      SUNNY     77  54  44 CALM      29.98F
HARLAN  *      SUNNY     75  54  46 CALM      30.02F
LAMONI         SUNNY     77  58  51 CALM      29.97F
RED OAK *      SUNNY     79  54  41 N6        29.98F
SHENANDOAH *   SUNNY     79  52  38 CALM      29.98F
$$

IAZ047>049-059>061-072>074-084-032200-
   CENTRAL IOWA

CITY           SKY/WX    TMP DP  RH WIND       PRES   REMARKS
AMES           SUNNY     77  55  46 VRB3      29.97F
ANKENY *       SUNNY     77  55  47 VRB3      29.96F
CHARITON *     SUNNY     75  55  50 CALM      29.97F
DES MOINES     SUNNY     79  52  38 CALM      29.96F
GRINNELL*      SUNNY     75  54  46 CALM      29.97F
KNOXVILLE *    SUNNY     75  52  43 CALM      29.96F
MARSHALLTOWN   SUNNY     76  55  48 VRB3      29.97S
PELLA *        SUNNY     77  59  53 CALM      29.98F
PERRY *          N/A     77  54  44 E3        29.98F
$$

IAZ004>006-015-016-023>025-035-036-032200-
   NORTH CENTRAL IOWA

CITY           SKY/WX    TMP DP  RH WIND       PRES   REMARKS
ALGONA *       SUNNY     77  50  38 W7        29.98F
CLARION *      SUNNY     77  54  44 CALM      29.98F
ESTHERVILLE    SUNNY     76  58  53 SW7       29.97F
FORT DODGE *   SUNNY     77  55  47 W6        29.99F
MASON CITY     SUNNY     77  58  51 W6        29.99S
FOREST CITY *  SUNNY     73  54  49 SW5       29.98S
IOWA FALLS *     N/A     77  55  47 CALM      29.99S
$$

IAZ007>011-017>019-026>030-037>042-050>054-066-032200-
   NORTHEAST IOWA

CITY           SKY/WX    TMP DP  RH WIND       PRES   REMARKS
CEDAR RAPIDS   SUNNY     76  54  46 NW5       29.95F
CHARLES CITY * SUNNY     75  59  57 W6        29.98S
CLINTON *      MOSUNNY   75  57  53 W3        29.97F
DECORAH *        N/A    N/A N/A N/A MISG        N/A
DUBUQUE        SUNNY     74  50  42 SW5       29.97F
MONTICELLO *   SUNNY     75  52  43 SW7       29.96S
OELWEIN *      SUNNY     75  55  50 CALM      29.97F
WATERLOO       SUNNY     79  54  41 NW3       29.96F
$$

IAZ064-065-067-068-078-032200-
   EAST CENTRAL IOWA

CITY           SKY/WX    TMP DP  RH WIND       PRES   REMARKS
DAVENPORT      SUNNY     78  57  48 CALM      29.95F
IOWA CITY      SUNNY     77  59  53 CALM      29.96F
MT. PLEASANT * SUNNY     81  54  39 CALM      29.95S HX  80
MUSCATINE *    SUNNY     79  57  47 N3        29.94F HX  80
QUAD CITIES    SUNNY     79  58  48 N3        29.94F HX  80
$$

IAZ062-063-075>077-085>089-095>099-032200-
   SOUTHEAST IOWA

CITY           SKY/WX    TMP DP  RH WIND       PRES   REMARKS
BURLINGTON     SUNNY     78  60  53 E6        29.94F
FAIRFIELD *    SUNNY     77  59  53 VRB5      29.95F
FORT MADISON * SUNNY     77  61  57 CALM      29.95F
KEOKUK *       SUNNY     77  59  53 E7        29.93F
OSKALOOSA *      N/A     75  57  53 CALM      29.97S
CENTERVILLE *  SUNNY     75  57  53 NE6       29.98F
OTTUMWA        SUNNY     77  60  55 VRB3      29.94F
WASHINGTON *   SUNNY     77  59  53 CALM      29.96F
$$

ABBREVIATIONS USED IN REMARKS
   TC - TEMPERATURES IN CELSIUS
  WCI - WIND CHILL INDEX
   HX - HEAT INDEX
  VSB - VISIBILITY
$$




USA.gov is the U.S. government's official web portal to all federal, state and local government web resources and services.